ニート彗星

291P/NEAT (2023)

English version
Home page
Updated on October 14, 2023

---------------------------------------------------------------------

・ プロフィール

・ 写真集

・ 軌道要素

Epoch 2022 Aug. 9.0 TT = JDT 2459800.5
T 2023 May 4.56107 TT                                   Rudenko
q   2.5635172            (2000.0)            P               Q
n   0.10178594     Peri.  173.56413     +0.62437670     -0.77559060
a   4.5430153      Node   237.75741     +0.71168546     +0.61381420
e   0.4357234      Incl.    6.29953     +0.32195892     +0.14727984
P   9.68
From 709 observations 2003 Sept. 4-2022 July 4, mean residual 0".8.

・ 光度変化

        m1 = 7.7 + 5 logΔ + 20.0 log r(t + 55)

---------------------------------------------------------------------

軌道要素はM.P.E.C. 2022-N37に掲載されたものです。
光度グラフはComet for Windowsで作成したものです。

---------------------------------------------------------------------

Copyright(C) Seiichi Yoshida (comet@aerith.net). All rights reserved.